HST (20580 NORAD) Tracking and Keplerian Element Data

This shows tracking and keplerian element data for the satellite.

Feedback or suggestion? Click here.




ElementValue
Catalog20580
NameHST
Epoch Orbit35058
Epoch Day202.58115177
Epoch Year2018
RAAN247.7412
Inclination28.4684
Eccentricity0.0002827
Argument of Perigee145.2869
Mean Anonmoly345.3171
Mean Motion15.09067572
Decay Rate3.63E-06
L11 20580U 90037B 18202.58115177 .00000363 00000-0 11206-4 0 9998
L22 20580 28.4684 247.7412 0002827 145.2869 345.3171 15.09067572350587

Live tracking and technical data element details for HST (NORAD 20580). HST can be tracked NOW for your location showing map with azimuth and elevation plus other details from your city location.

Track the satellite on the map from your city or location and see movement details for azimuth, elevation, latitude, longitude, range, height, and movement on the map or in text.







IsCatalogInMostPopularTable: catalog: 20580, numindb: 44
Update: records affected: 1



GetName: 20580 HST

Hit Count: updated at: Mon, 23 Jul 2018 07:34:42 GMT